CE-SAT 1

导读

CE-SAT 1是由日本研发的试验性卫星,于当地时间2017年6月23日8时成功发射。作为一颗技术验证卫星,它主要承担着新型空间观测技术、电子系统在轨测试等科研任务,旨在验证小型卫星平台搭载高分辨率成像设备的可行性,为日本后续微小卫星发展积累工程经验,推动商业航天领域微小卫星技术的进步。

基本信息
目录编号:
42769
目录名称:
CE-SAT 1
国际标识:
2017-036E
轨道中心:
EARTH
卫星名称:
CE-SAT 1
卫星全名:
--
卫星状态:
已陨落 最后检测时间 2025-05-20
发射日期:
2017-06-23 UTC
国别 :
日本 (JP)
星等 :
--
轨道信息
数据来源 国际轨道数据
星历时间: 2025-05-17T08:33:30+0800
轨道信息已过期423天
半长轴: 6522.988km
偏心率: 0.0009951
轨道倾角: 97.067°
近地点辐角 244.445°
升交点赤经 164.975°
平近点角 115.582°
近地点: 138.361km
远地点: 151.345km
周期: 87.384分钟
每日圈数: 16.479079
详细信息
使用方式:
暂无